Weather Roundup
Issued by NWS

Home | Current Version | Previous Version | Text Only | Print | Product List | Glossary On
Versions: 1 2 3 4 5 6 7 8 9 10 11 12 13 14 15 16 17 18 19 20 21 22 23 24 25 26 27 28 29 30 31 32 33 34 35 36 37 38 39 40 41 42 43 44 45 46 47 48 49 50
000
NZUS93 KARX 292159
HRRWXR

CURRENT HOURLY OBSERVATIONS ACROSS
MUCH OF THE UPPER MISSISSIPPI VALLEY
NATIONAL WEATHER SERVICE LA CROSSE WI
500 PM CDT SAT AUG 29 2015


...SOUTHEAST MINNESOTA...


CITY           SKY/WX    TMP DP  RH WIND       PRES   REMARKS
ROCHESTER      MOSUNNY   74  64  71 CALM      30.05S
ROCHESTER/MAYO FAIR      74  63  68 CALM      30.05S
WINONA         CLOUDY    72  63  73 CALM      30.04F
AUSTIN         SUNNY     75  64  69 CALM      30.04S
ALBERT LEA     SUNNY     73  64  73 CALM      30.04F
DODGE CENTER   SUNNY     73  63  68 CALM      30.05S
PRESTON        MOSUNNY   71  61  70 CALM      30.06S
OWATONNA       MOSUNNY   73  63  68 CALM      30.04S
FARIBAULT      MOSUNNY   73  64  73 CALM      30.04F
$$

...ELSEWHERE IN MINNESOTA...


CITY           SKY/WX    TMP DP  RH WIND       PRES   REMARKS
MINNEAPOLIS    PTSUNNY   74  61  63 S5        30.03S
INTNL FALLS    NOT AVBL
DULUTH         PTSUNNY   72  61  68 SW8       30.01S
RED WING       SUNNY     73  61  64 SE6       30.02F
REDWOOD FALLS  MOSUNNY   75  65  70 SE7       30.01F
MANKATO        PTSUNNY   68  61  77 S5        30.04S
WORTHINGTON    PTSUNNY   72  64  78 S6        30.04S
FAIRMONT       PTSUNNY   70  59  68 S7        30.05S
$$

...SOUTHWEST WISCONSIN...


CITY           SKY/WX    TMP DP  RH WIND       PRES   REMARKS
LA CROSSE      CLOUDY    72  63  73 CALM      30.04S
PRAIRIE DU CHI CLOUDY    71  61  70 E3        30.03S
BOSCOBEL       CLOUDY    72  62  71 CALM      30.04S
LONE ROCK      NOT AVBL
PLATTEVILLE    CLOUDY    71  66  85 N6        30.03S
FORT MC COY    NOT AVBL
VIROQUA          N/A     70  62  76 NE5       30.06R
WIS DELLS      CLOUDY    68  60  76 N5        30.05R
$$

...ELSEWHERE IN WISCONSIN...


CITY           SKY/WX    TMP DP  RH WIND       PRES   REMARKS
MILWAUKEE      FOG       59  58  96 NE7       30.03S VSB 1/4
MADISON        CLOUDY    67  62  84 NE5       30.03S
GREEN BAY      CLOUDY    71  63  75 E5        30.04S
EAU CLAIRE     NOT AVBL
BLACK RVR FLS  CLOUDY    70  59  69 CALM      30.05S
MEDFORD        PTSUNNY   70  61  75 CALM      30.06S
WAUSAU         CLOUDY    68  59  73 S3        30.05S
WIS RAPIDS     NOT AVBL
MARSHFIELD     CLOUDY    67  58  72 SE3       30.07S
RICE LAKE      MOSUNNY   73  62  68 SW5       30.05S
$$

...NORTHEAST IOWA...


CITY           SKY/WX    TMP DP  RH WIND       PRES   REMARKS
DECORAH        CLOUDY    72  63  73 VRB5      30.04S
MASON CITY     MOSUNNY   74  65  73 CALM      30.06S
CHARLES CITY   MOSUNNY   73  66  78 NE5       30.04F
OELWEIN        CLOUDY    70  64  83 VRB5      30.05R
$$

...ELSEWHERE IN IOWA...


CITY           SKY/WX    TMP DP  RH WIND       PRES   REMARKS
DES MOINES     CLOUDY    72  63  73 NW8       30.03S
IOWA CITY      CLOUDY    77  68  73 CALM      30.01S
FORT DODGE     CLOUDY    70  61  73 N3        30.06R
$$

...NORTHERN ILLINOIS...


CITY           SKY/WX    TMP DP  RH WIND       PRES   REMARKS
CHICAGO-OHARE  LGT RAIN  69  66  90 N3        30.00F
CHICAGO-MIDWAY CLOUDY    72  67  84 N6        30.00S
MOLINE         CLOUDY    74  67  78 N6        29.99S
ROCKFORD       CLOUDY    72  64  76 N3        30.02S
PEORIA         PTSUNNY   81  66  60 S6        29.98S
$$

NOTE: "FAIR" INDICATES FEW OR NO CLOUDS BELOW 12,000 FEET WITH NO
SIGNIFICANT WEATHER AND/OR OBSTRUCTIONS TO VISIBILITY. WIND
SPEEDS ARE IN MILES-PER-HOUR.



USA.gov is the U.S. government's official web portal to all federal, state and local government web resources and services.